Location: Madrid
(40.4167°N, 3.7036°W)
Time: 14:43:03
(UTC+00:00)

ISS - Pass Details

Date: 12 July 2024
Orbit: 410 x 424 km, 51.6° (Epoch: 14 July)

Event Time Altitude Azimuth Distance (km) Brightness Sun altitude
Rises 04:15:01 0° 287° (WNW) 2,349 -0.3 -7.2°
Reaches altitude 10° 04:18:12 10° 254° (WSW) 1,485 -1.6 -6.8°
Maximum altitude 04:19:29 12° 231° (SW) 1,378 -1.8 -6.6°
Drops below altitude 10° 04:20:47 10° 208° (SSW) 1,484 -1.5 -6.4°
Sets 04:23:57 0° 175° (S) 2,344 -0.3 -5.9°
